Year,Month,Day,Hour,Minute,Value (Times are PST for temperature in C)
2017,10,22,00,00,6.70
2017,10,22,00,01,6.70
2017,10,22,00,02,6.70
2017,10,22,00,03,6.70
2017,10,22,00,04,6.70
2017,10,22,00,05,6.70
2017,10,22,00,06,6.70
2017,10,22,00,07,6.70
2017,10,22,00,08,6.70
2017,10,22,00,09,6.70
2017,10,22,00,10,6.70
2017,10,22,00,11,6.70
2017,10,22,00,12,6.70
2017,10,22,00,13,6.70
2017,10,22,00,14,6.70
2017,10,22,00,15,6.70
2017,10,22,00,16,6.70
2017,10,22,00,17,6.70
2017,10,22,00,18,6.70
2017,10,22,00,19,6.70
2017,10,22,00,20,6.70
2017,10,22,00,21,6.80
2017,10,22,00,22,6.80
2017,10,22,00,23,6.80
2017,10,22,00,24,6.80
2017,10,22,00,25,6.80
2017,10,22,00,26,6.80
2017,10,22,00,27,6.80
2017,10,22,00,28,6.80
2017,10,22,00,29,6.80
2017,10,22,00,30,6.80
2017,10,22,00,31,6.80
2017,10,22,00,32,6.80
2017,10,22,00,33,6.80
2017,10,22,00,34,6.80
2017,10,22,00,35,6.80
2017,10,22,00,36,6.80
2017,10,22,00,37,6.90
2017,10,22,00,38,6.90
2017,10,22,00,39,6.90
2017,10,22,00,40,6.90
2017,10,22,00,41,6.90
2017,10,22,00,42,7.00
2017,10,22,00,43,7.00
2017,10,22,00,44,7.00
2017,10,22,00,45,7.00
2017,10,22,00,46,7.00
2017,10,22,00,47,7.00
2017,10,22,00,48,7.00
2017,10,22,00,49,6.90
2017,10,22,00,50,6.90
2017,10,22,00,51,6.90
2017,10,22,00,52,6.90
2017,10,22,00,53,6.90
2017,10,22,00,54,6.90
2017,10,22,00,55,6.90
2017,10,22,00,56,6.90
2017,10,22,00,57,6.90
2017,10,22,00,58,6.90
2017,10,22,00,59,6.90
2017,10,22,01,00,6.90
2017,10,22,01,01,6.90
2017,10,22,01,02,6.90
2017,10,22,01,03,7.00
2017,10,22,01,04,7.00
2017,10,22,01,05,7.00
2017,10,22,01,06,7.00
2017,10,22,01,07,7.00
2017,10,22,01,08,7.00
2017,10,22,01,09,7.00
2017,10,22,01,10,6.90
2017,10,22,01,11,6.90
2017,10,22,01,12,6.90
2017,10,22,01,13,6.90
2017,10,22,01,14,6.90
2017,10,22,01,15,7.00
2017,10,22,01,16,7.00
2017,10,22,01,17,7.10
2017,10,22,01,18,7.10
2017,10,22,01,19,7.10
2017,10,22,01,20,7.10
2017,10,22,01,21,7.20
2017,10,22,01,22,7.20
2017,10,22,01,23,7.30
2017,10,22,01,24,7.30
2017,10,22,01,25,7.40
2017,10,22,01,26,7.30
2017,10,22,01,27,7.30
2017,10,22,01,28,7.40
2017,10,22,01,29,7.40
2017,10,22,01,30,7.40
2017,10,22,01,31,7.40
2017,10,22,01,32,7.40
2017,10,22,01,33,7.40
2017,10,22,01,34,7.40
2017,10,22,01,35,7.40
2017,10,22,01,36,7.50
2017,10,22,01,37,7.50
2017,10,22,01,38,7.50
2017,10,22,01,39,7.50
2017,10,22,01,40,7.50
2017,10,22,01,41,7.40
2017,10,22,01,42,7.40
2017,10,22,01,43,7.40
2017,10,22,01,44,7.40
2017,10,22,01,45,7.40
2017,10,22,01,46,7.40
2017,10,22,01,47,7.40
2017,10,22,01,48,7.40
2017,10,22,01,49,7.40
2017,10,22,01,50,7.50
2017,10,22,01,51,7.50
2017,10,22,01,52,7.50
2017,10,22,01,53,7.50
2017,10,22,01,54,7.50
2017,10,22,01,55,7.50
2017,10,22,01,56,7.50
2017,10,22,01,57,7.50
2017,10,22,01,58,7.60
2017,10,22,01,59,7.60
2017,10,22,02,00,7.70
2017,10,22,02,01,7.80
2017,10,22,02,02,7.80
2017,10,22,02,03,7.90
2017,10,22,02,04,8.00
2017,10,22,02,05,8.00
2017,10,22,02,06,8.10
2017,10,22,02,07,8.10
2017,10,22,02,08,8.10
2017,10,22,02,09,8.00
2017,10,22,02,10,8.00
2017,10,22,02,11,7.90
2017,10,22,02,12,7.90
2017,10,22,02,13,7.90
2017,10,22,02,14,7.90
2017,10,22,02,15,7.80
2017,10,22,02,16,7.80
2017,10,22,02,17,7.80
2017,10,22,02,18,7.80
2017,10,22,02,19,7.80
2017,10,22,02,20,7.70
2017,10,22,02,21,7.70
2017,10,22,02,22,7.70
2017,10,22,02,23,7.70
2017,10,22,02,24,7.70
2017,10,22,02,25,7.70
2017,10,22,02,26,7.70
2017,10,22,02,27,7.70
2017,10,22,02,28,7.70
2017,10,22,02,29,7.60
2017,10,22,02,30,7.60
2017,10,22,02,31,7.50
2017,10,22,02,32,7.50
2017,10,22,02,33,7.50
2017,10,22,02,34,7.50
2017,10,22,02,35,7.50
2017,10,22,02,36,7.60
2017,10,22,02,37,8.00
2017,10,22,02,38,8.20
2017,10,22,02,39,8.50
2017,10,22,02,40,8.50
2017,10,22,02,41,8.50
2017,10,22,02,42,8.80
2017,10,22,02,43,8.90
2017,10,22,02,44,8.90
2017,10,22,02,45,9.10
2017,10,22,02,46,9.10
2017,10,22,02,47,9.20
2017,10,22,02,48,9.30
2017,10,22,02,49,9.40
2017,10,22,02,50,9.40
2017,10,22,02,51,9.40
2017,10,22,02,52,9.50
2017,10,22,02,53,9.40
2017,10,22,02,54,9.40
2017,10,22,02,55,9.50
2017,10,22,02,56,9.50
2017,10,22,02,57,9.50
2017,10,22,02,58,9.50
2017,10,22,02,59,9.50
2017,10,22,03,00,9.50
2017,10,22,03,01,9.50
2017,10,22,03,02,9.50
2017,10,22,03,03,9.60
2017,10,22,03,04,9.60
2017,10,22,03,05,9.60
2017,10,22,03,06,9.60
2017,10,22,03,07,9.60
2017,10,22,03,08,9.70
2017,10,22,03,09,9.70
2017,10,22,03,10,9.70
2017,10,22,03,11,9.70
2017,10,22,03,12,9.70
2017,10,22,03,13,9.70
2017,10,22,03,14,9.70
2017,10,22,03,15,9.70
2017,10,22,03,16,9.70
2017,10,22,03,17,9.70
2017,10,22,04,58,6.70
2017,10,22,04,59,6.70
2017,10,22,05,00,6.70
2017,10,22,05,01,6.80
2017,10,22,05,02,6.90
2017,10,22,05,03,6.90
2017,10,22,05,04,7.00
2017,10,22,05,05,7.00
2017,10,22,05,06,7.00
2017,10,22,05,07,7.00
2017,10,22,05,08,7.10
2017,10,22,05,09,7.10
2017,10,22,05,10,7.10
2017,10,22,05,11,7.10
2017,10,22,05,12,7.10
2017,10,22,05,13,7.10
2017,10,22,05,14,7.00
2017,10,22,05,15,7.00
2017,10,22,05,16,7.00
2017,10,22,05,17,7.00
2017,10,22,05,18,7.00
2017,10,22,05,19,7.00
2017,10,22,05,20,7.00
2017,10,22,05,21,7.00
2017,10,22,05,22,7.20
2017,10,22,05,23,7.40
2017,10,22,05,24,7.60
2017,10,22,05,25,7.70
2017,10,22,05,26,7.90
2017,10,22,05,27,8.00
2017,10,22,05,28,8.10
2017,10,22,05,29,8.20
2017,10,22,05,30,8.40
2017,10,22,05,31,8.40
2017,10,22,05,32,8.40
2017,10,22,05,33,8.50
2017,10,22,05,34,8.50
2017,10,22,05,35,8.50
2017,10,22,05,36,8.50
2017,10,22,05,37,8.40
2017,10,22,05,38,8.40
2017,10,22,05,39,8.40
2017,10,22,05,40,8.40
2017,10,22,05,41,8.30
2017,10,22,05,42,8.30
2017,10,22,05,43,8.30
2017,10,22,05,44,8.30
2017,10,22,05,45,8.30
2017,10,22,05,46,8.30
2017,10,22,05,47,8.30
2017,10,22,05,48,8.30
2017,10,22,05,49,8.30
2017,10,22,05,50,8.30
2017,10,22,05,51,8.40
2017,10,22,05,52,8.40
2017,10,22,05,53,8.40
2017,10,22,05,54,8.40
2017,10,22,05,55,8.40
2017,10,22,05,56,8.40
2017,10,22,05,57,8.40
2017,10,22,05,58,8.40
2017,10,22,05,59,8.50
2017,10,22,06,00,8.50
2017,10,22,06,01,8.50
2017,10,22,06,02,8.50
2017,10,22,06,03,8.50
2017,10,22,06,04,8.50
2017,10,22,06,05,8.50
2017,10,22,06,06,8.50
2017,10,22,06,07,8.50
2017,10,22,06,08,8.50
2017,10,22,06,09,8.50
2017,10,22,06,10,8.50
2017,10,22,06,11,8.40
2017,10,22,06,12,8.40
2017,10,22,06,13,8.40
2017,10,22,06,14,8.40
2017,10,22,06,15,8.40
2017,10,22,06,16,8.50
2017,10,22,06,17,8.50
2017,10,22,06,18,8.50
2017,10,22,06,19,8.50
2017,10,22,06,20,8.50
2017,10,22,06,21,8.50
2017,10,22,06,22,8.50
2017,10,22,06,23,8.50
2017,10,22,06,24,8.40
2017,10,22,06,25,8.40
2017,10,22,06,26,8.30
2017,10,22,06,27,8.30
2017,10,22,06,28,8.30
2017,10,22,06,29,8.40
2017,10,22,06,30,8.50
2017,10,22,06,31,8.60
2017,10,22,06,32,8.60
2017,10,22,06,33,8.60
2017,10,22,06,34,8.60
2017,10,22,06,35,8.70
2017,10,22,06,36,8.70
2017,10,22,06,37,8.70
2017,10,22,06,38,8.70
2017,10,22,06,39,8.60
2017,10,22,06,40,8.60
2017,10,22,06,41,8.50
2017,10,22,06,42,8.50
2017,10,22,06,43,8.40
2017,10,22,06,44,8.40
2017,10,22,06,45,8.30
2017,10,22,06,46,8.20
2017,10,22,06,47,8.10
2017,10,22,06,48,8.10
2017,10,22,06,49,8.00
2017,10,22,06,50,8.00
2017,10,22,06,51,7.90
2017,10,22,06,52,7.90
2017,10,22,06,53,7.80
2017,10,22,06,54,7.80
2017,10,22,06,55,7.80
2017,10,22,06,56,7.70
2017,10,22,06,57,7.70
2017,10,22,06,58,7.70
2017,10,22,06,59,7.60
2017,10,22,07,00,7.60
2017,10,22,07,01,7.60
2017,10,22,07,02,7.60
2017,10,22,07,03,7.60
2017,10,22,07,04,7.70
2017,10,22,07,05,7.70
2017,10,22,07,06,7.80
2017,10,22,07,07,7.80
2017,10,22,07,08,7.80
2017,10,22,07,09,7.80
2017,10,22,07,10,7.90
2017,10,22,07,11,7.90
2017,10,22,07,12,7.90
2017,10,22,07,13,7.90
2017,10,22,07,14,7.90
2017,10,22,07,15,7.90
2017,10,22,07,16,7.90
2017,10,22,07,17,7.90
2017,10,22,07,18,7.80
2017,10,22,07,19,7.70
2017,10,22,07,20,7.70
2017,10,22,07,21,7.60
2017,10,22,07,22,7.40
2017,10,22,07,23,7.40
2017,10,22,07,24,7.30
2017,10,22,07,25,7.30
2017,10,22,07,26,7.20
2017,10,22,07,27,7.20
2017,10,22,07,28,7.20
2017,10,22,07,29,7.20
2017,10,22,07,30,7.20
2017,10,22,07,31,7.20
2017,10,22,07,32,7.20
2017,10,22,07,33,7.20
2017,10,22,07,34,7.20
2017,10,22,07,35,7.20
2017,10,22,07,36,7.20
2017,10,22,07,37,7.20
2017,10,22,07,38,7.20
2017,10,22,07,39,7.20
2017,10,22,07,40,7.10
2017,10,22,07,41,7.10
2017,10,22,07,42,7.10
2017,10,22,07,43,7.00
2017,10,22,07,44,7.00
2017,10,22,07,45,7.00
2017,10,22,07,46,6.90
2017,10,22,07,47,6.90
2017,10,22,07,48,6.80
2017,10,22,07,49,6.80
2017,10,22,07,50,6.70
2017,10,22,07,51,6.70
2017,10,22,07,52,6.60
2017,10,22,07,53,6.50
2017,10,22,07,54,6.50
2017,10,22,07,55,6.50
2017,10,22,07,56,6.40
2017,10,22,07,57,6.30
2017,10,22,07,58,6.30
2017,10,22,07,59,6.30
2017,10,22,08,00,6.30
2017,10,22,08,01,6.20
2017,10,22,08,02,6.20
2017,10,22,08,03,6.20
2017,10,22,08,04,6.20
2017,10,22,08,05,6.20
2017,10,22,08,06,6.20
2017,10,22,08,07,6.10
2017,10,22,08,08,6.10
2017,10,22,08,09,6.10
2017,10,22,08,10,6.10
2017,10,22,08,11,6.00
2017,10,22,08,12,6.00
2017,10,22,08,13,6.10
2017,10,22,08,14,6.10
2017,10,22,08,15,6.10
2017,10,22,08,16,6.00
2017,10,22,08,17,6.00
2017,10,22,08,18,6.00
2017,10,22,08,19,6.00
2017,10,22,08,20,5.90
2017,10,22,08,21,5.90
2017,10,22,08,22,5.90
2017,10,22,08,23,5.90
2017,10,22,08,24,5.90
2017,10,22,08,25,5.90
2017,10,22,08,26,5.90
2017,10,22,08,27,5.90
2017,10,22,08,28,5.90
2017,10,22,08,29,5.90
2017,10,22,08,30,5.80
2017,10,22,08,31,5.80
2017,10,22,08,32,5.80
2017,10,22,08,33,5.70
2017,10,22,08,34,5.70
2017,10,22,08,35,5.60
2017,10,22,08,36,5.60
2017,10,22,08,37,5.60
2017,10,22,08,38,5.70
2017,10,22,08,39,5.70
2017,10,22,08,40,5.70
2017,10,22,08,41,5.70
2017,10,22,08,42,5.70
2017,10,22,08,43,5.70
2017,10,22,08,44,5.70
2017,10,22,08,45,5.70
2017,10,22,08,46,5.70
2017,10,22,08,47,5.70
2017,10,22,08,48,5.70
2017,10,22,08,49,5.70
2017,10,22,08,50,5.80
2017,10,22,08,51,5.80
2017,10,22,08,52,5.90
2017,10,22,08,53,6.00
2017,10,22,08,54,6.10
2017,10,22,08,55,6.10
2017,10,22,08,56,6.10
2017,10,22,08,57,6.10
2017,10,22,08,58,6.10
2017,10,22,08,59,6.10
2017,10,22,09,00,6.10
2017,10,22,09,01,6.10
2017,10,22,09,02,6.10
2017,10,22,09,03,6.00
2017,10,22,09,04,6.10
2017,10,22,09,05,6.00
2017,10,22,09,06,6.00
2017,10,22,09,07,6.00
2017,10,22,09,08,6.00
2017,10,22,09,09,6.10
2017,10,22,09,10,6.10
2017,10,22,09,11,6.30
2017,10,22,09,12,6.40
2017,10,22,09,13,6.50
2017,10,22,09,14,6.60
2017,10,22,09,15,6.60
2017,10,22,09,16,6.70
2017,10,22,09,17,6.70
2017,10,22,09,18,6.80
2017,10,22,09,19,6.90
2017,10,22,09,20,7.00
2017,10,22,09,21,7.10
2017,10,22,09,22,7.20
2017,10,22,09,23,7.30
2017,10,22,09,24,7.40
2017,10,22,09,25,7.40
2017,10,22,09,26,7.60
2017,10,22,09,27,7.80
2017,10,22,09,28,8.00
2017,10,22,09,29,8.10
2017,10,22,09,30,8.30
2017,10,22,09,31,8.60
2017,10,22,09,32,8.70
2017,10,22,09,33,8.80
2017,10,22,09,34,8.90
2017,10,22,09,35,8.90
2017,10,22,09,36,9.00
2017,10,22,09,37,9.00
2017,10,22,09,38,9.00
2017,10,22,09,39,9.10
2017,10,22,09,40,9.10
2017,10,22,09,41,9.20
2017,10,22,09,42,9.20
2017,10,22,09,43,9.30
2017,10,22,09,44,9.40
2017,10,22,09,45,9.40
2017,10,22,09,46,9.50
2017,10,22,09,47,9.50
2017,10,22,09,48,9.60
2017,10,22,09,49,9.60
2017,10,22,09,50,9.70
2017,10,22,09,51,9.70
2017,10,22,09,52,9.80
2017,10,22,09,53,9.80
2017,10,22,09,54,9.80
2017,10,22,09,55,9.90
2017,10,22,09,56,9.90
2017,10,22,09,57,9.90
2017,10,22,09,58,9.90
2017,10,22,09,59,9.90
2017,10,22,10,00,9.90
2017,10,22,10,01,9.90
2017,10,22,10,02,10.00
2017,10,22,10,03,10.00
2017,10,22,10,04,10.00
2017,10,22,10,05,10.00
2017,10,22,10,06,10.00
2017,10,22,10,07,10.00
2017,10,22,10,08,10.00
2017,10,22,10,09,10.00
2017,10,22,10,10,10.00
2017,10,22,10,11,10.00
2017,10,22,10,12,9.80
2017,10,22,10,13,9.80
2017,10,22,10,14,9.80
2017,10,22,10,15,9.80
2017,10,22,10,16,9.80
2017,10,22,10,17,9.80
2017,10,22,10,18,9.80
2017,10,22,10,19,9.80
2017,10,22,10,20,9.80
2017,10,22,10,21,9.80
2017,10,22,10,22,9.80
2017,10,22,11,13,10.20
2017,10,22,11,14,10.20
2017,10,22,11,15,10.30
2017,10,22,11,16,10.30
2017,10,22,11,17,10.30
2017,10,22,11,18,10.30
2017,10,22,11,19,10.30
2017,10,22,11,20,10.30
2017,10,22,11,21,10.30
2017,10,22,11,22,10.30
2017,10,22,11,23,10.30
2017,10,22,11,24,10.30
2017,10,22,11,25,10.30
2017,10,22,11,26,10.30
2017,10,22,11,27,10.40
2017,10,22,11,28,10.40
2017,10,22,11,29,10.40
2017,10,22,11,30,10.40
2017,10,22,11,31,10.50
2017,10,22,11,32,10.50
2017,10,22,11,33,10.60
2017,10,22,11,34,10.60
2017,10,22,11,35,10.60
2017,10,22,11,36,10.70
2017,10,22,11,37,10.70
2017,10,22,11,38,10.80
2017,10,22,11,39,10.80
2017,10,22,11,40,10.80
2017,10,22,11,41,10.90
2017,10,22,11,42,10.90
2017,10,22,11,43,10.90
2017,10,22,11,44,10.90
2017,10,22,11,45,11.10
2017,10,22,11,46,11.10
2017,10,22,11,47,11.10
2017,10,22,11,48,11.10
2017,10,22,11,49,11.10
2017,10,22,11,50,11.10
2017,10,22,11,51,11.10
2017,10,22,11,52,11.10
2017,10,22,11,53,11.10
2017,10,22,11,54,11.20
2017,10,22,11,55,11.20
2017,10,22,11,56,11.20
2017,10,22,11,57,11.20
2017,10,22,11,58,11.30
2017,10,22,11,59,11.30
2017,10,22,12,00,11.30
2017,10,22,12,01,11.40
2017,10,22,12,02,11.40
2017,10,22,12,03,11.40
2017,10,22,12,04,11.40
2017,10,22,12,05,11.40
2017,10,22,12,06,11.40
2017,10,22,12,07,11.40
2017,10,22,12,08,11.40
2017,10,22,12,09,11.40
2017,10,22,12,10,11.40
2017,10,22,12,11,11.40
2017,10,22,12,12,11.40
2017,10,22,12,13,11.40
2017,10,22,12,14,11.40
2017,10,22,12,15,11.40
2017,10,22,13,39,13.60
2017,10,22,13,40,13.60
2017,10,22,13,41,13.70
2017,10,22,13,42,13.70
2017,10,22,13,43,13.70
2017,10,22,13,44,13.70
2017,10,22,13,45,13.70
2017,10,22,13,46,13.70
2017,10,22,13,47,13.60
2017,10,22,13,48,13.60
2017,10,22,13,49,13.60
2017,10,22,13,50,13.60
2017,10,22,13,51,13.60
2017,10,22,13,52,13.60
2017,10,22,13,53,13.50
2017,10,22,13,54,13.50
2017,10,22,13,55,13.50
2017,10,22,13,56,13.50
2017,10,22,13,57,13.40
2017,10,22,13,58,13.40
2017,10,22,13,59,13.40
2017,10,22,14,00,13.40
2017,10,22,14,01,13.40
2017,10,22,14,02,13.40
2017,10,22,14,03,13.40
2017,10,22,14,04,13.40
2017,10,22,14,05,13.40
2017,10,22,14,06,13.40
2017,10,22,14,07,13.40
2017,10,22,14,08,13.40
2017,10,22,14,09,13.40
2017,10,22,14,10,13.30
2017,10,22,14,11,13.30
2017,10,22,14,12,13.20
2017,10,22,14,13,13.20
2017,10,22,14,14,13.30
2017,10,22,14,15,13.30
2017,10,22,14,16,13.40
2017,10,22,14,17,13.40
2017,10,22,14,18,13.40
2017,10,22,14,19,13.40
2017,10,22,14,20,13.40
2017,10,22,14,21,13.40
2017,10,22,14,22,13.40
2017,10,22,14,23,13.40
2017,10,22,14,24,13.40
2017,10,22,14,25,13.50
2017,10,22,14,26,13.50
2017,10,22,14,27,13.60
2017,10,22,14,28,13.60
2017,10,22,14,29,13.70
2017,10,22,14,30,13.70
2017,10,22,14,31,13.70
2017,10,22,14,32,13.80
2017,10,22,14,33,13.90
2017,10,22,14,34,13.90
2017,10,22,14,35,13.90
2017,10,22,14,36,14.00
2017,10,22,14,37,14.00
2017,10,22,14,38,14.10
2017,10,22,14,39,14.10
2017,10,22,14,40,14.10
2017,10,22,14,41,14.10
2017,10,22,14,42,14.10
2017,10,22,14,43,14.20
2017,10,22,14,44,14.20
2017,10,22,14,45,14.20
2017,10,22,14,46,14.20
2017,10,22,14,47,14.30
2017,10,22,14,48,14.30
2017,10,22,14,49,14.30
2017,10,22,14,50,14.30
2017,10,22,14,51,14.30
2017,10,22,14,52,14.40
2017,10,22,14,53,14.40
2017,10,22,14,54,14.40
2017,10,22,14,55,14.40
2017,10,22,14,56,14.40
2017,10,22,14,57,14.30
2017,10,22,14,58,14.30
2017,10,22,14,59,14.30
2017,10,22,15,00,14.30
2017,10,22,15,01,14.40
2017,10,22,15,02,14.40
2017,10,22,15,03,14.40
2017,10,22,15,04,14.50
2017,10,22,15,05,14.50
2017,10,22,15,06,14.60
2017,10,22,15,07,14.60
2017,10,22,15,08,14.60
2017,10,22,15,09,14.70
2017,10,22,15,10,14.70
2017,10,22,15,11,14.70
2017,10,22,15,12,14.70
2017,10,22,15,13,14.70
2017,10,22,15,14,14.70
2017,10,22,15,15,14.70
2017,10,22,15,16,14.80
2017,10,22,15,17,14.80
2017,10,22,15,18,14.90
2017,10,22,15,19,14.90
2017,10,22,15,20,15.00
2017,10,22,15,21,15.00
2017,10,22,15,22,15.10
2017,10,22,15,23,15.10
2017,10,22,15,24,15.10
2017,10,22,15,25,15.10
2017,10,22,15,26,15.10
2017,10,22,15,27,15.10
2017,10,22,15,28,15.10
2017,10,22,15,29,15.10
2017,10,22,15,30,15.10
2017,10,22,15,31,15.10
2017,10,22,15,32,15.10
2017,10,22,15,33,15.10
2017,10,22,15,34,15.00
2017,10,22,15,35,14.90
2017,10,22,15,36,14.80
2017,10,22,15,37,14.70
2017,10,22,15,38,14.60
2017,10,22,15,39,14.50
2017,10,22,15,40,14.40
2017,10,22,15,41,14.30
2017,10,22,15,42,14.30
2017,10,22,15,43,14.30
2017,10,22,15,44,14.30
2017,10,22,15,45,14.30
2017,10,22,15,46,14.30
2017,10,22,15,47,14.30
2017,10,22,15,48,14.20
2017,10,22,15,49,14.20
2017,10,22,15,50,14.10
2017,10,22,15,51,14.00
2017,10,22,15,52,14.00
2017,10,22,15,53,13.90
2017,10,22,15,54,13.90
2017,10,22,15,55,13.80
2017,10,22,15,56,13.80
2017,10,22,15,57,13.70
2017,10,22,15,58,13.70
2017,10,22,15,59,13.70
2017,10,22,16,00,13.70
2017,10,22,16,01,13.70
2017,10,22,16,02,13.70
2017,10,22,16,03,13.70
2017,10,22,16,04,13.70
2017,10,22,16,05,13.70
2017,10,22,16,06,13.70
2017,10,22,16,07,13.60
2017,10,22,16,08,13.60
2017,10,22,16,09,13.60
2017,10,22,16,10,13.60
2017,10,22,16,11,13.70
2017,10,22,16,12,13.70
2017,10,22,16,13,13.70
2017,10,22,16,14,13.70
2017,10,22,16,15,13.60
2017,10,22,16,16,13.60
2017,10,22,16,17,13.60
2017,10,22,16,18,13.60
2017,10,22,16,19,13.60
2017,10,22,16,20,13.60
2017,10,22,16,21,13.60
2017,10,22,16,22,13.60
2017,10,22,16,23,13.60
2017,10,22,16,24,13.60
2017,10,22,16,25,13.60
2017,10,22,16,26,13.60
2017,10,22,16,27,13.50
2017,10,22,16,28,13.60
2017,10,22,16,29,13.60
2017,10,22,16,30,13.60
2017,10,22,16,31,13.70
2017,10,22,16,32,13.70
2017,10,22,16,33,13.60
2017,10,22,16,34,13.60
2017,10,22,16,35,13.60
2017,10,22,16,36,13.60
2017,10,22,16,37,13.50
2017,10,22,16,38,13.50
2017,10,22,16,39,13.40
2017,10,22,16,40,13.40
2017,10,22,16,41,13.40
2017,10,22,16,42,13.40
2017,10,22,16,43,13.40
2017,10,22,16,44,13.40
2017,10,22,16,45,13.40
2017,10,22,16,46,13.30
2017,10,22,16,47,13.30
2017,10,22,16,48,13.30
2017,10,22,16,49,13.30
2017,10,22,16,50,13.30
2017,10,22,16,51,13.30
2017,10,22,16,52,13.20
2017,10,22,16,53,13.20
2017,10,22,16,54,13.10
2017,10,22,16,55,13.00
2017,10,22,16,56,13.00
2017,10,22,16,57,13.00
2017,10,22,16,58,12.90
2017,10,22,16,59,12.90
2017,10,22,17,00,12.90
2017,10,22,17,01,12.90
2017,10,22,17,02,12.90
2017,10,22,17,03,12.90
2017,10,22,17,04,12.90
2017,10,22,17,05,12.90
2017,10,22,17,06,12.90
2017,10,22,17,07,12.90
2017,10,22,17,08,12.90
2017,10,22,17,09,12.90
2017,10,22,17,10,12.90
2017,10,22,17,11,12.90
2017,10,22,17,12,12.80
2017,10,22,17,13,12.80
2017,10,22,17,14,12.80
2017,10,22,17,15,12.70
2017,10,22,17,16,12.70
2017,10,22,17,17,12.70
2017,10,22,17,18,12.70
2017,10,22,17,19,12.70
2017,10,22,17,20,12.70
2017,10,22,17,21,12.60
2017,10,22,17,22,12.60
2017,10,22,17,23,12.60
2017,10,22,17,24,12.60
2017,10,22,17,25,12.60
2017,10,22,17,26,12.50
2017,10,22,17,27,12.50
2017,10,22,17,28,12.40
2017,10,22,17,29,12.40
2017,10,22,17,30,12.40
2017,10,22,17,31,12.30
2017,10,22,17,32,12.30
2017,10,22,17,33,12.20
2017,10,22,17,34,12.20
2017,10,22,17,35,12.20
2017,10,22,17,36,12.10
2017,10,22,17,37,12.10
2017,10,22,17,38,12.10
2017,10,22,17,39,12.00
2017,10,22,17,40,12.00
2017,10,22,17,41,11.90
2017,10,22,17,42,11.90
2017,10,22,17,43,11.90
2017,10,22,17,44,11.90
2017,10,22,17,45,11.90
2017,10,22,17,46,11.90
2017,10,22,17,47,11.90
2017,10,22,17,48,11.90
2017,10,22,17,49,11.90
2017,10,22,17,50,11.90
2017,10,22,17,51,11.90
2017,10,22,17,52,11.90
2017,10,22,17,53,11.90
2017,10,22,17,54,11.90
2017,10,22,17,55,11.90
2017,10,22,17,56,11.90
2017,10,22,17,57,11.90
2017,10,22,17,58,11.90
2017,10,22,17,59,11.90
2017,10,22,18,00,11.90
2017,10,22,18,01,11.90
2017,10,22,18,02,11.90
2017,10,22,18,03,11.90
2017,10,22,18,04,11.90
2017,10,22,18,05,11.80
2017,10,22,18,06,11.80
2017,10,22,18,07,11.80
2017,10,22,18,08,11.70
2017,10,22,18,09,11.70
2017,10,22,18,10,11.70
2017,10,22,18,11,11.60
2017,10,22,18,12,11.60
2017,10,22,18,13,11.50
2017,10,22,18,14,11.50
2017,10,22,18,15,11.40
2017,10,22,18,16,11.40
2017,10,22,18,17,11.40
2017,10,22,18,18,11.30
2017,10,22,18,19,11.30
2017,10,22,18,20,11.20
2017,10,22,18,21,11.20
2017,10,22,18,22,11.10
2017,10,22,18,23,11.10
2017,10,22,18,24,11.00
2017,10,22,18,25,11.00
2017,10,22,18,26,10.90
2017,10,22,18,27,10.90
2017,10,22,18,28,10.90
2017,10,22,18,29,10.90
2017,10,22,18,30,10.90
2017,10,22,18,31,10.80
2017,10,22,18,32,10.80
2017,10,22,18,33,10.70
2017,10,22,18,34,10.70
2017,10,22,18,35,10.60
2017,10,22,18,36,10.50
2017,10,22,18,37,10.40
2017,10,22,18,38,10.30
2017,10,22,18,39,10.30
2017,10,22,18,40,10.20
2017,10,22,18,41,10.20
2017,10,22,18,42,10.20
2017,10,22,18,43,10.10
2017,10,22,18,44,10.10
2017,10,22,18,45,10.10
2017,10,22,18,46,10.10
2017,10,22,18,47,10.10
2017,10,22,18,48,10.10
2017,10,22,18,49,10.00
2017,10,22,18,50,10.00
2017,10,22,18,51,9.90
2017,10,22,18,52,9.90
2017,10,22,18,53,9.90
2017,10,22,18,54,9.80
2017,10,22,18,55,9.80
2017,10,22,18,56,9.80
2017,10,22,18,57,9.80
2017,10,22,18,58,9.80
2017,10,22,18,59,9.80
2017,10,22,19,00,9.70
2017,10,22,19,01,9.70
2017,10,22,19,02,9.80
2017,10,22,19,03,9.80
2017,10,22,19,04,9.80
2017,10,22,19,05,9.80
2017,10,22,19,06,9.80
2017,10,22,19,07,9.80
2017,10,22,19,08,9.90
2017,10,22,19,09,9.90
2017,10,22,19,10,9.90
2017,10,22,19,11,9.90
2017,10,22,19,12,9.90
2017,10,22,19,13,9.90
2017,10,22,19,14,9.90
2017,10,22,19,15,9.90
2017,10,22,19,16,9.90
2017,10,22,19,17,9.90
2017,10,22,19,18,10.00
2017,10,22,19,19,10.00
2017,10,22,19,20,10.00
2017,10,22,19,21,10.10
2017,10,22,19,22,10.10
2017,10,22,19,23,10.10
2017,10,22,19,24,10.10
2017,10,22,19,25,10.10
2017,10,22,19,26,10.10
2017,10,22,19,27,10.10
2017,10,22,19,28,10.10
2017,10,22,19,29,10.10
2017,10,22,19,30,10.10
2017,10,22,19,31,10.10
2017,10,22,19,32,10.00
2017,10,22,19,33,10.00
2017,10,22,19,34,10.00
2017,10,22,19,35,10.00
2017,10,22,19,36,10.00
2017,10,22,19,37,9.90
2017,10,22,19,38,9.90
2017,10,22,19,39,9.90
2017,10,22,19,40,9.90
2017,10,22,19,41,9.90
2017,10,22,19,42,9.90
2017,10,22,19,43,9.90
2017,10,22,19,44,9.90
2017,10,22,19,45,9.90
2017,10,22,19,46,9.90
2017,10,22,19,47,9.80
2017,10,22,19,48,9.80
2017,10,22,19,49,9.80
2017,10,22,19,50,9.80
2017,10,22,19,51,9.80
2017,10,22,19,52,9.80
2017,10,22,19,53,9.70
2017,10,22,19,54,9.70
2017,10,22,19,55,9.70
2017,10,22,19,56,9.70
2017,10,22,19,57,9.70
2017,10,22,19,58,9.70
2017,10,22,19,59,9.70
2017,10,22,20,00,9.70
2017,10,22,20,01,9.70
2017,10,22,20,02,9.70
2017,10,22,20,03,9.70
2017,10,22,20,04,9.70
2017,10,22,20,05,9.60
2017,10,22,20,06,9.60
2017,10,22,20,07,9.60
2017,10,22,20,08,9.60
2017,10,22,20,09,9.60
2017,10,22,20,10,9.60
2017,10,22,20,11,9.60
2017,10,22,20,12,9.60
2017,10,22,20,13,9.60
2017,10,22,20,14,9.60
2017,10,22,20,15,9.50
2017,10,22,20,16,9.50
2017,10,22,20,17,9.50
2017,10,22,20,18,9.50
2017,10,22,20,19,9.50
2017,10,22,20,20,9.50
2017,10,22,20,21,9.50
2017,10,22,20,22,9.50
2017,10,22,20,23,9.50
2017,10,22,20,24,9.60
2017,10,22,20,25,9.60
2017,10,22,20,26,9.60
2017,10,22,20,27,9.60
2017,10,22,20,28,9.60
2017,10,22,20,29,9.60
2017,10,22,20,30,9.70
2017,10,22,20,31,9.70
2017,10,22,20,32,9.80
2017,10,22,20,33,9.70
2017,10,22,20,34,9.70
2017,10,22,20,35,9.60
2017,10,22,20,36,9.50
2017,10,22,20,37,9.50
2017,10,22,20,38,9.50
2017,10,22,20,39,9.60
2017,10,22,20,40,9.60
2017,10,22,20,41,9.60
2017,10,22,20,42,9.60
2017,10,22,20,43,9.60
2017,10,22,20,44,9.60
2017,10,22,20,45,9.60
2017,10,22,20,46,9.50
2017,10,22,20,47,9.40
2017,10,22,20,48,9.40
2017,10,22,20,49,9.40
2017,10,22,20,50,9.30
2017,10,22,20,51,9.30
2017,10,22,20,52,9.30
2017,10,22,20,53,9.30
2017,10,22,20,54,9.30
2017,10,22,20,55,9.30
2017,10,22,20,56,9.30
2017,10,22,20,57,9.30
2017,10,22,20,58,9.40
2017,10,22,20,59,9.40
2017,10,22,21,00,9.40
2017,10,22,21,01,9.40
2017,10,22,21,02,9.40
2017,10,22,21,03,9.40
2017,10,22,21,04,9.40
2017,10,22,21,05,9.40
2017,10,22,21,06,9.40
2017,10,22,21,07,9.30
2017,10,22,21,08,9.30
2017,10,22,21,09,9.30
2017,10,22,21,10,9.30
2017,10,22,21,11,9.40
2017,10,22,21,12,9.40
2017,10,22,21,13,9.40
2017,10,22,21,14,9.40
2017,10,22,21,15,9.40
2017,10,22,21,16,9.40
2017,10,22,21,17,9.40
2017,10,22,21,18,9.40
2017,10,22,21,19,9.40
2017,10,22,21,20,9.40
2017,10,22,21,21,9.40
2017,10,22,21,22,9.40
2017,10,22,21,23,9.30
2017,10,22,21,24,9.30
2017,10,22,21,25,9.30
2017,10,22,21,26,9.30
2017,10,22,21,27,9.30
2017,10,22,21,28,9.30
2017,10,22,21,29,9.30
2017,10,22,21,30,9.30
2017,10,22,21,31,9.30
2017,10,22,21,32,9.20
2017,10,22,21,33,9.20
2017,10,22,21,34,9.20
2017,10,22,21,35,9.20
2017,10,22,21,36,9.10
2017,10,22,21,37,9.00
2017,10,22,21,38,8.90
2017,10,22,21,39,8.80
2017,10,22,21,40,8.70
2017,10,22,21,41,8.60